This demonstration page uses our WeatherBlox Daily Observations layout. Learn more.

Left ArrowRight Arrow

39.01783, -85.05884

Hourly Observations for August 15, 2016

Temp ( °F °C ) Dew Point ( °F °C ) Humidity (%) Winds ( mph kmh ) Pressure ( in mb ) Visibility ( mi km ) Precip ( " mm )
12:52 am 00:52 Cloudy 76 24.4 73 22.8 91 91 NNE 6 9 30.10 1019 10 16 N/A
1:31 am 01:31 Cloudy 75 24 73 23 94 94 NNE 6 9 30.09 1019 10 16 N/A
1:52 am 01:52 Cloudy 76 24.4 73 22.8 91 91 NE 5 7 30.09 1019 10 16 N/A
2:52 am 02:52 Cloudy 76 24.4 73 22.8 91 91 N 5 7 30.09 1019 10 16 N/A
3:52 am 03:52 Cloudy 75 23.9 73 22.8 94 94 N 5 7 30.09 1019 10 16 N/A
4:31 am 04:31 Cloudy with Heavy Rain 73 23 73 23 100 100 NW 5 7 30.12 1020 2 3 0.23 5.84
4:37 am 04:37 Cloudy with Strong Thunderstorms 73 23 73 23 100 100 NNW 6 9 30.09 1019 2 2 0.32 8.13
4:52 am 04:52 Cloudy with Thunderstorms 74 23.3 73 22.8 97 97 N 3 6 30.11 1020 6 10 0.34 8.64
5:16 am 05:16 Cloudy with Strong Thunderstorms 73 23 73 23 100 100 NW 7 11 30.12 1020 2 3 N/A
5:25 am 05:25 Cloudy with Strong Thunderstorms 72 22 72 22 100 100 W 13 20 30.15 1021 1 1 0.40 10.16
5:34 am 05:34 Cloudy with Strong Thunderstorms 70 21 70 21 100 100 SSW 14 22 30.18 1022 1 1 N/A
5:52 am 05:52 Cloudy with Thunderstorms 71 21.7 69 20.6 94 94 W 8 13 30.12 1020 4 6 0.89 22.61
5:54 am 05:54 Cloudy with Thunderstorms 70 21 70 21 100 100 WNW 8 13 30.12 1020 3 5 N/A
6:30 am 06:30 Cloudy with Light Rain 72 22 70 21 94 94 NNE 6 9 30.12 1020 8 13 0.08 2.03
6:52 am 06:52 Cloudy with Light Rain 71 21.7 69 20.6 94 94 N N/A 30.12 1020 8 13 0.09 2.29
7:52 am 07:52 Cloudy with Light Rain 71 21.7 71 21.7 100 100 ESE 3 6 30.12 1020 10 16 N/A
8:01 am 08:01 Cloudy 72 22 72 22 100 100 E 5 7 30.12 1020 10 16 N/A
8:52 am 08:52 Cloudy 72 22.2 71 21.7 97 97 VRB 3 6 30.14 1021 10 16 0.02 0.51
9:52 am 09:52 Cloudy 74 23.3 72 22.2 94 94 E 7 11 30.15 1021 10 16 N/A
10:24 am 10:24 Cloudy 73 23 72 22 94 94 E 7 11 30.15 1021 10 16 N/A
10:46 am 10:46 Mostly Cloudy 75 24 73 23 94 94 E 7 11 30.15 1021 10 16 N/A
10:52 am 10:52 Cloudy 76 24.4 72 22.2 88 88 E 8 13 30.15 1021 10 16 N/A
11:52 am 11:52 Cloudy 78 25.6 72 22.2 82 82 E 7 11 30.15 1021 10 16 N/A
12:52 pm 12:52 Cloudy 79 26.1 72 22.2 79 79 ESE 9 15 30.14 1021 10 16 N/A
1:52 pm 13:52 Mostly Cloudy 82 27.8 73 22.8 74 74 ESE 8 13 30.12 1020 10 16 N/A
2:52 pm 14:52 Cloudy 84 28.9 74 23.3 72 72 E 7 11 30.10 1019 10 16 N/A
3:52 pm 15:52 Mostly Cloudy 85 29.4 74 23.3 70 70 NE 8 13 30.05 1018 10 16 N/A
4:28 pm 16:28 Cloudy with Thunderstorms 82 28 75 24 79 79 N 12 19 30.00 1016 10 16 N/A
4:52 pm 16:52 Cloudy with Thunderstorms 81 27.2 74 23.3 79 79 NNE 9 15 30.04 1017 10 16 N/A
4:59 pm 16:59 Cloudy with Strong Thunderstorms 79 26 73 23 84 84 S 31 50 30.09 1019 1 2 N/A
5:02 pm 17:02 Cloudy with Strong Thunderstorms 73 23 70 21 89 89 SW 17 28 30.09 1019 1 1 N/A
5:11 pm 17:11 Cloudy with Thunderstorms 73 23 68 20 83 83 SW 14 22 30.06 1018 7 11 0.36 9.14
5:19 pm 17:19 Cloudy with Thunderstorms 73 23 70 21 89 89 S 8 13 30.06 1018 9 14 0.45 11.43
5:38 pm 17:38 Mostly Cloudy 77 25 72 22 83 83 S 7 11 30.06 1018 10 16 N/A
5:52 pm 17:52 Mostly Cloudy 80 26.7 73 22.8 79 79 SE 6 9 30.06 1018 10 16 0.45 11.43
6:52 pm 18:52 Mostly Cloudy 79 26.1 73 22.8 82 82 ESE 8 13 30.05 1018 10 16 N/A
7:52 pm 19:52 Cloudy 78 25.6 72 22.2 82 82 ESE 7 11 30.05 1018 10 16 N/A
8:52 pm 20:52 Cloudy 76 24.4 72 22.2 88 88 ESE 7 11 30.06 1018 10 16 N/A
9:52 pm 21:52 Cloudy 77 25 73 22.8 88 88 SE 14 22 30.06 1018 10 16 N/A
10:52 pm 22:52 Cloudy 75 23.9 71 21.7 88 88 S 12 19 30.07 1018 10 16 N/A
11:52 pm 23:52 Mostly Cloudy 74 23.3 72 22.2 94 94 SSE 9 15 30.06 1018 10 16 N/A

Powered by AerisWeather